DW6352 Weather Reports


time (UTC)temp
C
wind
direction
speed
KPH
gust
KPH
rain 1hr
cm
rain 24hr
cm
rain mn
cm
humidity
%
barometer
mb
20260508221547 20 272 9.7 27.4 0.00 0.00 0.00 22 1000.7
20260508220046 19 322 8.0 24.1 0.00 0.00 0.00 23 1000.9
20260508214543 19 320 12.9 27.4 0.00 0.00 0.00 23 1001.2
20260508213041 18 246 6.4 17.7 0.00 0.00 0.00 24 1001.3
20260508211540 18 248 11.3 29.0 0.00 0.00 0.00 24 1001.5
20260508210037 18 271 14.5 22.5 0.00 0.00 0.00 23 1001.7
20260508204537 18 217 8.0 30.6 0.00 0.00 0.00 23 1002.0
20260508203032 19 311 14.5 25.7 0.00 0.00 0.00 25 1002.3
20260508201530 17 40 8.0 17.7 0.00 0.00 0.00 28 1002.5
20260508200033 17 320 16.1 30.6 0.00 0.00 0.00 24 1002.8
20260508194543 18 319 14.5 27.4 0.00 0.00 0.00 24 1003.0
20260508193023 17 252 6.4 32.2 0.00 0.00 0.00 25 1003.3
20260508191522 17 292 11.3 19.3 0.00 0.00 0.00 26 1003.4
20260508190020 17 271 6.4 24.1 0.00 0.00 0.00 27 1003.5
20260508184518 16 264 12.9 22.5 0.00 0.00 0.00 27 1003.8
20260508183015 16 288 9.7 19.3 0.00 0.00 0.00 28 1004.0
20260508181525 16 268 11.3 32.2 0.00 0.00 0.00 27 1004.1
20260508180013 17 268 11.3 24.1 0.00 0.00 0.00 28 1004.3
20260508174510 17 266 9.7 24.1 0.00 0.00 0.00 26 1004.5
20260508173008 16 240 11.3 29.0 0.00 0.00 0.00 29 1004.9
20260508171508 16 203 9.7 20.9 0.00 0.00 0.00 32 1005.0
20260508170002 15 254 4.8 22.5 0.00 0.00 0.00 32 1005.4
20260508164559 15 293 3.2 22.5 0.00 0.00 0.00 33 1005.4
20260508163102 15 167 1.6 16.1 0.00 0.00 0.00 38 1005.6
20260508161604 14 193 9.7 16.1 0.00 0.00 0.00 36 1005.8
20260508160049 13 157 4.8 12.9 0.00 0.00 0.00 38 1005.9
20260508154547 12 146 9.7 17.7 0.00 0.00 0.00 38 1006.0
20260508153047 12 255 9.7 14.5 0.00 0.00 0.00 37 1006.1
20260508151542 12 232 8.0 14.5 0.00 0.00 0.00 39 1006.4
20260508150039 11 194 8.0 19.3 0.00 0.00 0.00 40 1006.6
20260508144639 11 192 12.9 19.3 0.00 0.00 0.00 41 1006.6
20260508143044 11 171 11.3 17.7 0.00 0.00 0.00 42 1006.7
20260508141533 11 192 8.0 16.1 0.00 0.00 0.00 43 1006.7
20260508140034 10 223 8.0 19.3 0.00 0.00 0.00 44 1007.0
20260508134525 9 208 4.8 9.7 0.00 0.00 0.00 52 1007.1
20260508133022 8 188 6.4 11.3 0.00 0.00 0.00 56 1007.3
20260508131518 7 198 4.8 9.7 0.00 0.00 0.00 58 1007.5
20260508130014 7 186 4.8 9.7 0.00 0.00 0.00 61 1007.5
20260508124510 5 177 8.0 11.3 0.00 0.00 0.00 69 1007.3
20260508123005 3 179 4.8 9.7 0.00 0.00 0.00 84 1007.3
20260508121502 1 205 3.2 6.4 0.00 0.00 0.00 85 1007.4
20260508120100 0 163 3.2 8.0 0.00 0.00 0.00 84 1007.2
20260508114558 0 175 3.2 6.4 0.00 0.00 0.00 83 1007.2
20260508113054 0 257 3.2 6.4 0.00 0.00 0.00 81 1007.1
20260508111555 0 180 4.8 8.0 0.00 0.00 0.00 80 1007.2
20260508110050 0 173 3.2 4.8 0.00 0.00 0.00 79 1007.2
20260508104547 0 173 1.6 3.2 0.00 0.00 0.00 79 1007.2
20260508103047 0 173 1.6 4.8 0.00 0.00 0.00 79 1007.3
20260508101546 0 173 3.2 4.8 0.00 0.00 0.00 78 1007.4
20260508100044 0 173 3.2 4.8 0.00 0.00 0.00 77 1007.4
20260508094545 0 173 1.6 3.2 0.00 0.00 0.00 77 1007.5
20260508093037 0 173 0.0 0.0 0.00 0.00 0.00 77 1007.5
20260508091535 0 173 3.2 4.8 0.00 0.00 0.00 77 1007.6
20260508090036 1 173 1.6 4.8 0.00 0.00 0.00 77 1007.6
20260508084532 1 173 1.6 3.2 0.00 0.00 0.00 77 1007.6
20260508083029 1 175 1.6 4.8 0.00 0.00 0.00 77 1007.6
20260508081533 1 175 1.6 6.4 0.00 0.00 0.00 76 1007.7
20260508080027 1 360 4.8 6.4 0.00 0.00 0.00 75 1007.5
20260508074526 1 360 0.0 0.0 0.00 0.00 0.00 75 1007.5
20260508073024 1 360 0.0 3.2 0.00 0.00 0.00 75 1007.6
20260508071528 1 360 1.6 4.8 0.00 0.00 0.00 76 1007.8
20260508070022 1 360 1.6 6.4 0.00 0.00 0.00 76 1007.8
20260508064521 1 192 1.6 4.8 0.00 0.00 0.00 75 1007.8
20260508063019 1 192 1.6 4.8 0.00 0.00 0.00 73 1007.9
20260508061522 1 192 1.6 3.2 0.00 0.00 0.00 72 1008.0
20260508060014 1 192 3.2 4.8 0.00 0.00 0.00 71 1008.1
20260508054513 1 192 1.6 4.8 0.00 0.00 0.00 70 1008.1
20260508053010 2 192 3.2 4.8 0.00 0.00 0.00 69 1008.1
20260508051520 2 192 3.2 4.8 0.00 0.00 0.00 68 1008.2
20260508050009 2 192 1.6 4.8 0.00 0.00 0.00 67 1008.1
20260508044505 2 192 1.6 4.8 0.00 0.00 0.00 67 1008.2
20260508043004 3 187 3.2 4.8 0.00 0.00 0.00 65 1008.3
20260508041504 3 187 3.2 4.8 0.00 0.00 0.00 63 1008.4
20260508040008 3 187 3.2 6.4 0.00 0.00 0.00 62 1008.4
20260508034505 4 274 3.2 6.4 0.00 0.00 0.00 59 1008.5
20260508033005 5 275 3.2 4.8 0.00 0.00 0.00 56 1008.6
20260508031502 5 275 3.2 4.8 0.00 0.00 0.00 55 1008.6
20260508030002 5 275 1.6 3.2 0.00 0.00 0.00 53 1008.6
20260508024501 6 275 1.6 3.2 0.00 0.00 0.00 51 1008.6
20260508023101 7 275 1.6 3.2 0.00 0.00 0.00 49 1008.5
20260508021601 8 275 0.0 0.0 0.00 0.00 0.00 45 1008.5
20260508014600 10 275 0.0 4.8 0.00 0.00 0.00 37 1008.2
20260508013059 11 275 0.0 6.4 0.00 0.00 0.00 33 1008.3
20260508011607 12 271 3.2 6.4 0.00 0.00 0.00 31 1008.2
20260508010058 12 264 1.6 11.3 0.00 0.00 0.00 30 1008.1
20260508004600 12 257 4.8 16.1 0.00 0.00 0.00 30 1008.2
20260508003059 12 268 4.8 19.3 0.00 0.00 0.00 29 1008.3
20260508001558 12 190 4.8 16.1 0.00 0.00 0.00 30 1008.3
20260508000055 13 300 6.4 14.5 0.00 0.00 0.00 29 1008.4
20260507234602 13 169 6.4 16.1 0.00 0.00 0.00 31 1008.4
20260507233054 12 242 4.8 19.3 0.00 0.00 0.00 30 1008.5
20260507231557 13 279 12.9 19.3 0.00 0.00 0.00 28 1008.6
20260507230057 12 267 11.3 24.1 0.00 0.00 0.00 29 1008.7
20260507224552 13 227 12.9 24.1 0.00 0.00 0.00 28 1008.8
20260507223056 13 272 9.7 24.1 0.00 0.00 0.00 29 1008.8